Temperature
20 21 21 21 21 21 20 19 20 20 19 20 19 18 19 19 19 19 19 20 20 20 20 20 21 21 21 20 20 20 19 19 19 19 18 18 18 18 17 17 17 17 16 16
21 21 21 21 21 21 20 20 20 20 20 19 19 19 18 19 19 19 19 20 20 20 20 20 20 20 20 20 20 19 19 19 19 19 18 18 18 17 17 17 17 16 16 16
19 20 21 21 20 20 20 20 20 20 20 18 18 18 18 19 19 19 19 20 20 20 20 20 20 20 20 20 19 19 19 19 18 18 18 18 17 17 17 17 16 16 16 16
17 20 21 20 19 20 19 19 19 19 18 18 18 18 19 19 19 19 20 20 20 20 20 20 19 19 19 19 19 19 18 18 18 18 17 17 17 17 17 16 16 16 16 15
16 18 19 19 19 19 19 19 18 18 18 18 18 18 18 19 19 20 20 20 20 20 19 19 19 19 19 19 19 19 18 18 18 17 17 17 17 17 16 16 16 15 15 15
16 18 18 19 19 19 19 19 18 18 17 17 18 17 17 19 19 19 19 19 19 19 19 19 19 19 19 18 18 18 18 18 17 17 17 17 16 16 16 16 15 15 15 15
16 17 17 18 18 19 19 19 18 18 18 17 17 17 18 18 19 19 19 19 19 19 19 18 18 18 18 18 18 18 17 17 17 16 16 16 16 16 15 15 15 15 15 15
15 17 18 17 17 17 17 18 18 18 18 18 18 18 18 18 18 18 18 18 18 18 18 18 18 17 17 17 17 17 17 16 16 16 16 16 16 15 15 15 14 14 14 14
15 15 16 16 17 18 18 17 18 18 18 18 18 18 18 17 17 18 17 17 17 17 17 17 17 17 17 16 16 16 16 16 16 16 15 15 15 14 14 14 14 14 14 14
14 15 15 16 17 17 18 18 18 18 18 18 18 17 17 17 17 17 17 17 16 16 16 16 16 16 16 16 16 16 15 15 15 15 15 14 14 14 14 14 13 13 13 13
14 14 15 17 17 17 18 18 18 18 18 18 18 17 17 17 17 16 16 16 16 16 16 16 16 16 15 15 15 15 15 15 14 14 14 14 13 13 13 13 13 13 13 13
14 15 14 16 17 17 17 18 18 18 17 17 18 17 17 17 16 16 16 16 16 15 15 15 15 15 15 14 14 14 14 14 14 14 13 13 13 13 13 13 12 12 12 12
16 17 17 17 17 17 17 17 17 17 17 17 17 17 16 16 16 15 15 15 15 15 15 14 14 14 14 14 13 13 13 13 13 13 13 13 13 12 12 12 12 12 12 12
17 16 16 16 16 16 16 16 16 16 16 16 16 16 16 15 15 15 15 15 15 14 14 14 14 13 13 13 13 13 13 12 12 13 12 12 12 12 12 12 12 12 11 11
16 16 16 16 16 16 16 16 16 16 15 15 15 15 15 15 15 14 14 14 14 14 14 13 13 13 13 13 13 12 12 12 12 12 12 12 12 12 12 11 11 11 11 11
15 16 15 15 15 15 15 15 15 15 15 15 15 14 14 14 14 14 14 14 14 13 13 13 13 12 12 12 12 12 12 12 11 11 11 11 11 11 11 11 11 11 11 11
15 14 14 14 15 15 15 15 15 15 14 14 14 14 14 14 13 13 13 13 13 13 12 12 12 12 12 11 11 11 11 11 11 11 11 11 11 11 11 11 11 11 11 11
15 15 15 15 15 14 14 14 14 14 14 14 13 13 13 13 13 13 12 12 12 12 12 12 11 11 11 11 11 11 11 11 10 10 10 10 11 11 11 11 10 10 10 10
15 15 15 14 14 14 14 14 14 14 13 13 13 13 13 12 12 12 12 12 12 11 11 11 11 11 11 10 10 10 10 10 10 10 10 10 10 10 10 10 10 10 10 10
14 14 14 14 14 14 13 13 13 13 13 13 12 12 12 12 12 12 11 11 11 11 11 10 10 10 10 10 10 10 10 10 10 10 10 10 10 10 9 9 9 9 9 9
14 14 13 13 13 13 13 13 13 12 12 12 12 12 12 11 11 11 11 11 10 10 10 10 10 10 10 10 9 9 9 9 9 9 9 9 9 9 9 9 9 9 9 9
13 13 13 13 12 12 12 12 12 12 12 11 11 11 11 11 11 10 10 10 10 10 10 10 9 9 9 9 9 9 9 9 9 9 9 9 9 9 9 9 8 8 8 8
12 12 12 12 12 12 12 12 11 11 11 11 11 11 10 10 10 10 10 9 9 9 9 9 9 9 9 9 9 9 9 9 9 8 8 8 8 8 8 8 8 8 8 8
12 12 12 11 11 11 11 11 11 10 10 10 10 10 10 10 10 9 9 9 9 9 9 9 9 9 9 8 8 8 8 8 8 8 8 8 8 8 8 8 8 8 8 8
11 11 11 11 11 11 11 10 10 10 10 10 10 10 9 9 9 9 9 9 8 8 8 8 8 8 8 8 8 8 8 8 8 8 8 8 8 8 8 8 8 8 7 7
11 11 10 10 10 10 10 10 10 10 9 9 9 9 9 9 9 9 8 8 8 8 8 8 8 8 8 8 8 8 8 8 8 8 8 8 7 7 7 7 7 7 7 7
10 10 10 10 10 10 9 9 9 9 9 9 9 9 8 8 8 8 8 8 8 8 8 8 8 8 8 7 7 7 7 7 7 7 7 7 7 7 7 7 7 7 7 7
Wind_Speed
4 3 3 2 2 5 6 8 8 8 7 8 6 5 4 3 3 3 2 2 3 4 3 3 2 2 2 2 2 3 4 4 4 4 4 3 3 3 3 4 4 4 4 4
1 0 3 1 1 2 3 3 4 3 5 5 2 2 2 2 3 4 3 3 3 3 3 3 3 3 2 2 2 2 3 3 3 3 3 3 3 3 3 3 3 3 3 4
2 2 2 2 3 3 2 1 4 5 6 2 3 3 4 4 4 4 5 4 4 4 4 4 4 4 4 3 2 3 2 2 2 3 3 3 3 3 3 4 3 3 4 4
3 3 5 6 1 4 4 1 2 3 3 4 5 3 1 2 4 5 5 4 4 4 4 4 3 3 3 3 3 3 2 2 3 3 3 3 3 3 3 3 3 4 4 4
4 4 3 4 2 3 3 2 1 2 2 2 3 4 3 1 2 4 4 4 4 4 4 3 3 3 3 3 3 2 2 3 3 3 3 3 3 3 3 3 3 3 3 4
4 4 7 6 3 1 4 2 2 3 3 3 4 2 3 2 0 1 1 2 2 2 2 2 1 3 4 3 3 3 3 3 3 3 3 4 3 3 3 3 3 3 3 3
4 3 6 4 3 2 5 5 2 3 4 4 3 4 2 1 2 1 1 2 3 3 3 1 1 3 3 2 2 3 2 2 2 3 4 3 3 2 2 3 3 3 2 2
4 3 6 2 2 4 5 1 2 3 3 3 3 2 2 3 3 3 4 4 3 3 3 2 2 3 2 0 2 1 2 2 3 2 2 3 3 2 2 2 2 2 2 2
6 5 3 2 3 2 2 2 2 3 3 4 4 3 3 3 3 3 4 4 3 4 4 3 3 3 2 1 1 0 1 1 2 2 2 2 3 2 2 2 2 2 2 3
1 3 3 2 1 1 2 3 2 3 4 4 4 4 4 3 3 3 3 3 3 4 4 3 2 2 0 1 1 1 1 0 1 2 2 1 2 2 3 3 3 3 3 4
1 3 3 3 2 1 1 2 3 3 3 4 6 4 4 3 3 2 2 2 3 3 2 1 2 2 2 2 2 2 1 1 1 2 2 2 1 2 3 3 5 5 5 5
5 5 4 4 3 1 1 1 3 3 3 2 4 5 4 3 2 3 2 2 2 2 1 1 2 3 3 2 2 2 1 1 1 1 1 1 1 1 2 2 4 6 6 5
4 3 3 2 1 2 2 1 2 3 4 3 2 4 5 3 2 3 2 2 2 1 0 1 1 2 2 1 2 1 1 1 0 0 0 1 1 2 2 3 2 2 4 4
2 3 2 0 0 1 2 3 4 4 3 3 3 3 4 3 3 2 2 1 1 1 0 0 0 2 2 0 1 0 0 1 1 1 1 1 2 2 2 2 3 3 3 3
1 2 3 2 2 2 2 4 4 3 2 2 3 3 3 3 2 2 1 0 1 1 1 1 1 2 2 0 1 1 1 1 2 1 2 2 2 2 2 2 3 3 3 2
2 3 4 4 2 2 2 3 3 2 1 1 2 1 2 2 2 1 0 1 1 1 2 2 2 3 2 1 0 1 1 2 2 2 2 2 2 2 2 3 3 3 3 3
5 3 3 4 3 2 2 2 3 2 1 1 2 1 2 2 2 1 1 1 1 2 2 2 3 3 2 1 1 1 2 2 3 2 2 2 2 3 3 3 3 3 4 4
6 6 7 7 5 4 2 2 2 2 2 2 1 2 2 2 2 2 2 1 1 1 2 3 3 2 2 1 1 1 1 2 2 2 2 2 2 3 2 3 3 4 4 3
3 4 4 4 4 5 4 3 2 2 1 1 2 2 2 2 2 2 1 0 0 2 3 4 4 2 2 2 1 1 1 2 2 2 2 3 3 2 2 3 3 4 3 3
3 3 4 3 3 3 3 2 2 1 1 2 2 2 1 1 1 1 1 1 3 3 4 4 3 3 3 3 2 1 2 2 2 2 2 2 3 3 3 3 4 4 3 3
3 3 3 2 2 1 2 2 2 2 1 1 2 2 2 2 1 1 1 3 4 4 4 4 3 3 3 3 2 2 2 3 3 3 3 3 3 3 3 3 4 4 4 4
2 2 2 1 1 1 1 1 2 2 1 1 1 1 1 1 2 2 2 4 5 5 3 2 3 4 4 3 2 2 3 3 3 3 3 3 3 3 3 4 4 5 4 4
2 2 2 1 1 1 0 0 1 1 1 1 2 2 3 3 2 2 4 4 3 5 3 3 4 5 5 3 3 3 4 4 4 4 4 4 4 4 4 5 4 4 4 4
1 0 1 1 1 2 0 1 1 1 1 1 2 2 2 2 2 3 4 4 5 5 4 5 6 6 5 3 3 3 4 4 4 4 4 4 4 4 5 5 4 4 5 5
1 1 1 1 1 1 1 1 1 1 1 1 2 2 2 2 3 3 3 3 4 5 4 5 6 6 4 3 4 4 4 4 4 4 4 4 4 5 5 5 5 5 5 5
1 1 0 1 1 0 0 1 0 1 1 2 2 3 2 2 2 2 2 3 5 5 4 4 4 5 4 4 4 5 4 4 4 4 5 5 5 5 5 5 6 5 5 5
2 2 2 2 2 1 1 1 0 1 1 1 2 3 3 3 2 2 3 3 4 4 4 4 4 4 4 4 4 4 4 4 4 4 4 5 5 5 5 6 5 5 5 5
Wind_Direction
223 224 162 182 205 176 178 184 186 217 217 243 236 207 193 176 161 162 169 165 169 170 172 167 169 177 188 199 195 184 176 187 202 200 191 187 188 186 181 182 188 182 178 183
330 336 150 121 331 171 185 182 197 202 248 245 194 151 156 166 168 188 207 199 190 180 177 184 190 191 180 181 176 152 171 191 186 173 177 183 187 184 178 181 179 168 175 181
218 278 94 267 247 202 183 184 184 211 237 179 149 172 191 197 197 207 217 213 206 203 201 205 205 196 193 190 161 145 156 162 162 174 177 180 179 168 183 190 185 185 191 189
146 123 205 234 239 171 159 208 218 219 218 182 172 165 177 186 190 211 218 217 220 214 213 212 206 195 177 152 144 154 168 178 175 174 185 182 170 180 192 193 193 199 204 205
133 169 243 282 236 171 170 262 263 201 196 132 126 78 18 349 192 212 219 211 214 211 208 193 187 179 151 146 150 160 195 206 196 187 186 179 188 198 196 190 200 205 205 206
131 160 216 235 249 199 124 271 260 183 178 137 111 115 265 312 284 211 203 187 175 156 125 136 170 143 141 166 174 204 219 221 202 190 187 188 198 201 196 191 207 208 215 220
146 193 252 257 277 126 159 229 221 174 169 154 166 197 205 22 32 57 83 88 99 109 105 120 138 131 146 156 211 233 221 199 190 191 189 184 185 190 185 188 189 198 215 240
146 179 244 274 118 168 208 214 164 161 152 147 146 118 86 60 49 57 62 64 81 92 79 58 85 110 110 203 271 253 185 182 192 191 190 182 175 186 177 173 181 200 211 259
185 209 254 241 202 232 164 174 189 166 164 152 141 122 100 85 77 68 65 58 66 92 86 65 69 93 104 300 322 348 174 200 195 168 172 164 168 175 175 178 192 228 235 251
241 281 294 288 315 339 175 185 179 162 153 147 145 138 122 108 86 71 64 66 68 76 74 53 38 54 88 323 97 126 168 197 136 144 143 143 159 175 186 196 210 224 240 250
261 285 329 334 336 335 40 97 105 103 121 147 137 131 126 118 102 91 72 75 93 98 88 47 34 19 15 27 81 103 99 94 131 154 155 165 178 203 211 219 215 217 228 228
215 218 194 250 284 350 88 126 138 121 103 117 142 146 138 136 130 117 110 97 91 90 72 22 20 8 3 27 84 110 100 106 165 166 150 166 169 305 293 252 252 234 224 221
213 202 189 230 343 48 105 109 113 124 140 133 121 136 134 133 130 121 118 118 127 132 106 41 11 339 334 15 68 87 148 221 216 196 184 193 212 234 279 303 306 262 244 242
195 130 106 137 126 69 101 102 95 87 94 119 127 126 128 133 138 140 164 197 175 137 137 144 255 299 303 3 108 131 291 289 255 233 234 225 235 244 248 265 289 298 288 268
167 142 159 138 83 78 89 93 89 80 75 84 111 129 138 149 163 184 206 133 88 64 7 340 292 287 289 220 184 226 233 250 247 242 245 236 239 244 249 255 262 278 298 297
133 101 112 116 131 131 106 113 126 149 140 142 137 158 165 159 157 156 103 124 143 233 259 260 270 281 290 261 237 259 258 270 273 255 257 249 243 247 248 250 257 264 270 277
137 148 152 158 173 175 171 180 181 184 174 173 187 178 134 117 101 55 321 286 227 244 252 247 267 287 291 251 214 249 270 282 289 290 268 255 248 247 249 250 257 264 266 262
183 182 176 172 176 176 178 176 173 174 186 200 161 127 132 154 189 229 256 280 322 322 303 285 278 290 291 273 238 246 258 272 278 275 275 269 262 255 252 254 259 265 276 274
156 157 162 163 164 161 170 181 192 204 197 165 158 172 190 200 208 227 233 137 305 292 291 290 286 281 278 270 257 227 242 263 281 284 282 279 276 273 265 261 263 265 265 267
127 134 140 136 142 153 175 186 179 186 191 172 162 153 185 241 221 213 191 249 257 255 268 276 276 276 275 269 267 246 251 259 269 278 280 280 277 276 272 270 272 275 272 265
134 130 135 144 161 175 180 171 171 198 215 181 181 198 224 257 257 225 223 282 287 274 269 273 272 272 267 260 258 248 245 249 256 263 268 272 274 275 278 280 279 277 273 270
130 134 148 159 156 189 213 181 187 193 193 208 209 200 200 255 278 280 260 251 268 278 278 276 270 261 253 254 254 252 251 248 249 252 256 262 264 265 268 272 273 274 275 273
124 139 156 170 185 204 266 148 178 186 192 212 221 225 225 234 233 238 273 273 267 270 272 272 271 265 259 262 254 250 251 252 250 249 248 252 257 258 258 262 268 273 276 276
110 140 188 178 130 118 134 277 263 240 228 238 247 244 236 248 272 264 256 269 275 277 277 275 275 273 268 263 255 253 252 250 251 251 252 255 258 259 258 259 263 268 271 274
73 53 73 98 120 183 221 239 15 355 335 314 302 288 271 248 254 277 283 281 284 287 291 284 277 273 268 261 256 255 253 249 249 248 250 254 259 263 265 265 263 264 267 270
57 71 100 152 168 183 143 108 92 319 318 321 315 309 303 295 286 289 292 292 294 295 295 293 290 284 278 267 263 261 260 258 256 254 253 256 261 263 265 267 271 270 267 264
44 49 56 40 21 28 82 115 110 308 293 283 296 308 313 313 310 309 304 302 305 302 299 297 290 283 282 278 273 269 266 264 261 257 255 255 258 260 263 265 267 271 272 268
Height
1483 1479 1480 1482 1483 1484 1488 1493 1499 1495 1493 1485 1482 1482 1482 1483 1484 1486 1487 1488 1489 1491 1493 1494 1496 1497 1498 1499 1500 1501 1503 1504 1504 1505 1505 1507 1508 1509 1511 1512 1512 1513 1514 1515
1483 1479 1479 1483 1482 1482 1484 1486 1488 1487 1487 1479 1479 1480 1481 1482 1483 1484 1485 1486 1488 1489 1491 1492 1493 1495 1496 1497 1498 1499 1499 1500 1502 1502 1503 1504 1505 1507 1508 1509 1509 1510 1511 1511
1492 1483 1481 1489 1483 1482 1483 1482 1484 1486 1482 1477 1479 1479 1479 1480 1481 1482 1483 1484 1486 1487 1489 1490 1492 1493 1494 1495 1496 1497 1497 1498 1499 1500 1500 1501 1503 1504 1505 1506 1507 1507 1508 1508
1494 1490 1498 1487 1475 1476 1479 1480 1478 1477 1476 1476 1476 1477 1478 1479 1480 1481 1481 1482 1484 1485 1487 1488 1490 1491 1491 1492 1493 1494 1495 1496 1496 1497 1498 1499 1500 1501 1502 1503 1504 1504 1505 1506
1498 1498 1493 1482 1475 1475 1478 1479 1475 1475 1475 1476 1476 1476 1478 1478 1479 1480 1480 1481 1482 1483 1484 1486 1487 1488 1489 1490 1491 1492 1492 1493 1494 1495 1495 1496 1497 1498 1499 1500 1501 1502 1502 1503
1495 1496 1498 1482 1472 1471 1475 1482 1474 1473 1474 1475 1476 1481 1480 1478 1478 1479 1479 1480 1481 1482 1483 1483 1485 1486 1486 1487 1488 1489 1490 1491 1492 1492 1493 1493 1494 1495 1496 1497 1498 1499 1499 1500
1492 1493 1486 1474 1470 1471 1485 1481 1472 1472 1473 1474 1476 1477 1478 1477 1477 1478 1478 1479 1479 1480 1481 1481 1482 1483 1484 1485 1486 1487 1488 1488 1489 1489 1490 1490 1491 1492 1493 1494 1494 1495 1496 1496
1492 1492 1488 1471 1471 1474 1474 1470 1471 1471 1472 1474 1475 1475 1476 1477 1478 1477 1477 1477 1478 1479 1479 1480 1481 1481 1482 1482 1484 1485 1485 1486 1486 1486 1487 1487 1488 1489 1490 1491 1491 1492 1492 1493
1482 1482 1473 1470 1470 1470 1470 1470 1470 1471 1472 1473 1474 1475 1475 1476 1477 1477 1478 1478 1478 1478 1479 1479 1479 1480 1481 1482 1482 1482 1483 1483 1483 1483 1483 1484 1485 1485 1486 1487 1488 1489 1489 1489
1477 1473 1471 1470 1469 1468 1469 1469 1469 1471 1472 1473 1474 1474 1475 1476 1476 1477 1478 1479 1479 1479 1478 1478 1478 1478 1479 1480 1480 1480 1480 1480 1480 1480 1481 1482 1482 1483 1483 1484 1485 1485 1486 1486
1476 1472 1470 1469 1469 1468 1468 1468 1469 1471 1472 1473 1474 1474 1475 1476 1477 1477 1478 1479 1479 1479 1479 1479 1478 1478 1478 1478 1477 1477 1476 1477 1479 1478 1478 1479 1480 1481 1481 1481 1482 1482 1482 1482
1473 1469 1470 1469 1469 1468 1468 1468 1469 1470 1472 1473 1474 1474 1475 1476 1477 1478 1478 1479 1479 1478 1478 1478 1478 1477 1477 1477 1476 1475 1475 1475 1476 1476 1476 1476 1477 1477 1478 1478 1478 1479 1479 1479
1466 1467 1468 1468 1468 1469 1469 1469 1470 1471 1472 1473 1473 1474 1475 1476 1477 1477 1478 1478 1478 1478 1478 1478 1477 1476 1476 1475 1474 1474 1474 1473 1474 1474 1474 1474 1474 1474 1475 1475 1475 1475 1475 1475
1464 1465 1466 1467 1468 1469 1470 1470 1471 1471 1472 1473 1473 1474 1475 1476 1476 1477 1478 1478 1478 1477 1477 1477 1476 1475 1475 1474 1473 1473 1473 1473 1472 1472 1472 1472 1472 1472 1472 1472 1471 1471 1472 1472
1464 1465 1465 1466 1468 1469 1470 1470 1470 1471 1472 1473 1473 1474 1475 1475 1475 1476 1476 1476 1476 1476 1476 1475 1475 1474 1473 1472 1471 1471 1470 1471 1470 1470 1470 1470 1469 1469 1469 1469 1469 1469 1469 1469
1463 1464 1465 1466 1467 1468 1469 1470 1471 1471 1472 1472 1473 1474 1474 1474 1474 1474 1474 1474 1474 1473 1473 1473 1472 1472 1471 1470 1469 1469 1468 1469 1468 1467 1467 1467 1466 1466 1466 1466 1466 1466 1465 1465
1462 1463 1464 1465 1466 1467 1468 1470 1470 1471 1471 1472 1472 1472 1473 1473 1472 1473 1473 1473 1472 1472 1471 1471 1470 1469 1469 1468 1467 1467 1466 1466 1466 1465 1464 1464 1463 1463 1463 1463 1462 1462 1462 1462
1460 1461 1462 1463 1465 1466 1467 1469 1469 1470 1470 1470 1471 1471 1471 1471 1471 1471 1471 1471 1470 1469 1469 1469 1468 1467 1466 1465 1465 1464 1464 1463 1462 1462 1461 1460 1460 1459 1459 1459 1458 1458 1457 1457
1459 1461 1462 1463 1464 1465 1467 1467 1468 1469 1469 1469 1469 1469 1469 1469 1469 1469 1469 1468 1467 1466 1466 1466 1466 1465 1464 1463 1462 1461 1461 1460 1459 1458 1458 1457 1456 1456 1455 1455 1454 1454 1453 1453
1458 1459 1461 1462 1463 1465 1465 1466 1467 1467 1467 1467 1467 1467 1467 1467 1467 1467 1466 1465 1465 1464 1464 1463 1463 1461 1461 1460 1459 1458 1458 1457 1456 1455 1455 1454 1453 1453 1452 1451 1451 1450 1449 1449
1457 1458 1460 1461 1462 1463 1464 1464 1464 1465 1465 1465 1465 1465 1464 1464 1464 1464 1463 1463 1462 1462 1461 1460 1459 1458 1458 1457 1456 1455 1454 1454 1453 1452 1451 1450 1449 1449 1448 1447 1447 1446 1445 1445
1456 1457 1459 1460 1460 1461 1462 1462 1462 1462 1463 1463 1463 1462 1462 1462 1462 1461 1461 1461 1460 1459 1458 1457 1456 1455 1455 1454 1453 1452 1451 1450 1449 1448 1447 1446 1445 1444 1444 1443 1443 1442 1441 1440
1456 1457 1457 1458 1458 1459 1459 1460 1460 1460 1460 1460 1460 1460 1459 1459 1459 1459 1458 1458 1457 1456 1455 1453 1453 1452 1451 1450 1449 1448 1447 1446 1445 1444 1443 1442 1442 1441 1440 1439 1438 1437 1437 1436
1455 1455 1456 1456 1457 1457 1457 1457 1458 1458 1458 1458 1458 1457 1457 1457 1456 1456 1455 1454 1453 1452 1451 1450 1449 1448 1447 1446 1444 1443 1442 1441 1441 1440 1439 1438 1437 1437 1436 1435 1433 1433 1432 1431
1453 1453 1454 1454 1454 1454 1455 1455 1456 1456 1456 1455 1455 1455 1455 1454 1454 1453 1452 1451 1450 1449 1448 1447 1446 1444 1443 1442 1440 1439 1438 1437 1436 1435 1435 1434 1433 1432 1431 1430 1429 1428 1427 1426
1452 1452 1452 1453 1453 1453 1454 1454 1454 1454 1454 1453 1453 1453 1452 1451 1451 1450 1449 1448 1447 1446 1444 1443 1441 1440 1439 1437 1436 1435 1434 1433 1432 1431 1430 1429 1428 1427 1426 1425 1424 1423 1422 1421
1451 1451 1452 1452 1452 1452 1452 1453 1453 1452 1452 1451 1451 1450 1449 1448 1447 1446 1446 1444 1443 1442 1440 1439 1437 1436 1434 1433 1432 1431 1430 1429 1428 1427 1426 1425 1423 1422 1421 1420 1419 1418 1417 1416